Time,TemperatureF,DewpointF,PressureIn,WindDirection,WindDirectionDegrees,WindSpeedMPH,WindSpeedGustMPH,Humidity,HourlyPrecipIn,Conditions,Clouds,dailyrainin,SoftwareType,DateUTC
2013-07-12 00:02:00,59.0,-99.9,-100.00,WSW,248,0.0,3.0,-999,0.00,,,0.00,,2013-07-12 05:02:00,
2013-07-12 00:12:00,59.0,-99.9,-100.00,WSW,248,0.0,5.0,-999,0.00,,,0.00,,2013-07-12 05:12:00,
2013-07-12 00:32:00,59.0,-99.9,-100.00,WSW,248,0.0,5.0,-999,0.00,,,0.00,,2013-07-12 05:32:00,
2013-07-12 00:43:00,59.0,-99.9,-100.00,WSW,248,1.0,3.0,-999,0.00,,,0.00,,2013-07-12 05:43:00,
2013-07-12 01:02:00,60.0,-99.9,-100.00,WSW,248,1.0,3.0,-999,0.00,,,0.00,,2013-07-12 06:02:00,
2013-07-12 01:11:00,59.0,-99.9,-100.00,WSW,248,1.0,3.0,-999,0.00,,,0.00,,2013-07-12 06:11:00,
2013-07-12 01:33:00,59.0,-99.9,-100.00,WSW,248,1.0,3.0,-999,0.00,,,0.00,,2013-07-12 06:33:00,
2013-07-12 01:42:00,59.0,-99.9,-100.00,WSW,248,1.0,3.0,-999,0.00,,,0.00,,2013-07-12 06:42:00,
2013-07-12 02:02:00,59.0,-99.9,-100.00,WSW,248,1.0,3.0,-999,0.00,,,0.00,,2013-07-12 07:02:00,
2013-07-12 02:12:00,59.0,-99.9,-100.00,WSW,248,1.0,3.0,-999,0.00,,,0.00,,2013-07-12 07:12:00,
2013-07-12 02:33:00,59.0,-99.9,-100.00,SW,225,2.0,5.0,-999,0.00,,,0.00,,2013-07-12 07:33:00,
2013-07-12 02:43:00,58.0,-99.9,-100.00,SSW,203,1.0,3.0,-999,0.00,,,0.00,,2013-07-12 07:43:00,
2013-07-12 03:02:00,58.0,-99.9,-100.00,SSW,203,1.0,6.0,-999,0.00,,,0.00,,2013-07-12 08:02:00,
2013-07-12 03:11:00,58.0,-99.9,-100.00,SSW,203,1.0,5.0,-999,0.00,,,0.00,,2013-07-12 08:11:00,
2013-07-12 03:32:00,58.0,-99.9,-100.00,SSW,203,2.0,5.0,-999,0.00,,,0.00,,2013-07-12 08:32:00,
2013-07-12 03:42:00,58.0,-99.9,-100.00,SSW,203,2.0,3.0,-999,0.00,,,0.00,,2013-07-12 08:42:00,
2013-07-12 04:02:00,58.0,-99.9,-100.00,SSW,203,0.0,3.0,-999,0.00,,,0.00,,2013-07-12 09:02:00,
2013-07-12 04:13:00,57.0,-99.9,-100.00,SSW,203,0.0,2.0,-999,0.00,,,0.00,,2013-07-12 09:13:00,
2013-07-12 04:33:00,57.0,-99.9,-100.00,SSW,203,0.0,2.0,-999,0.00,,,0.00,,2013-07-12 09:33:00,
2013-07-12 04:43:00,56.0,-99.9,-100.00,SSW,203,1.0,3.0,-999,0.00,,,0.00,,2013-07-12 09:43:00,
2013-07-12 05:01:00,56.0,-99.9,-100.00,SSW,203,0.0,3.0,-999,0.00,,,0.00,,2013-07-12 10:01:00,
2013-07-12 05:11:00,56.0,-99.9,-100.00,SSW,203,0.0,1.0,-999,0.00,,,0.00,,2013-07-12 10:11:00,
2013-07-12 05:33:00,55.0,-99.9,-100.00,SSW,203,0.0,2.0,-999,0.00,,,0.00,,2013-07-12 10:33:00,
2013-07-12 05:43:00,55.0,-99.9,-100.00,SSW,203,0.0,2.0,-999,0.00,,,0.00,,2013-07-12 10:43:00,
2013-07-12 06:02:00,55.0,-99.9,-100.00,SSW,203,0.0,2.0,-999,0.00,,,0.00,,2013-07-12 11:02:00,
2013-07-12 06:12:00,55.0,-99.9,-100.00,SSW,203,0.0,2.0,-999,0.00,,,0.00,,2013-07-12 11:12:00,
2013-07-12 06:33:00,57.0,-99.9,-100.00,SSW,203,1.0,3.0,-999,0.00,,,0.00,,2013-07-12 11:33:00,
2013-07-12 06:43:00,58.0,-99.9,-100.00,SSW,203,0.0,3.0,-999,0.00,,,0.00,,2013-07-12 11:43:00,
2013-07-12 07:02:00,60.0,-99.9,-100.00,SSW,203,2.0,5.0,-999,0.00,,,0.00,,2013-07-12 12:02:00,
2013-07-12 07:11:00,60.0,-99.9,-100.00,SSW,203,2.0,5.0,-999,0.00,,,0.00,,2013-07-12 12:11:00,
2013-07-12 07:32:00,62.0,-99.9,-100.00,SSW,203,3.0,5.0,-999,0.00,,,0.00,,2013-07-12 12:32:00,
2013-07-12 07:43:00,64.0,-99.9,-100.00,SSW,203,1.0,7.0,-999,0.00,,,0.00,,2013-07-12 12:43:00,
2013-07-12 07:53:00,64.0,-99.9,-100.00,SSW,203,3.0,7.0,-999,0.00,,,0.00,,2013-07-12 12:53:00,
2013-07-12 08:02:00,65.0,-99.9,-100.00,WSW,248,2.0,9.0,-999,0.00,,,0.00,,2013-07-12 13:02:00,
2013-07-12 08:12:00,65.0,-99.9,-100.00,WSW,248,1.0,5.0,-999,0.00,,,0.00,,2013-07-12 13:12:00,
2013-07-12 08:32:00,66.0,-99.9,-100.00,WSW,248,3.0,9.0,-999,0.00,,,0.00,,2013-07-12 13:32:00,
2013-07-12 08:43:00,67.0,-99.9,-100.00,SW,225,3.0,10.0,-999,0.00,,,0.00,,2013-07-12 13:43:00,
2013-07-12 09:02:00,69.0,-99.9,-100.00,SW,225,5.0,12.0,-999,0.00,,,0.00,,2013-07-12 14:02:00,
2013-07-12 09:12:00,70.0,-99.9,-100.00,SW,225,6.0,12.0,-999,0.00,,,0.00,,2013-07-12 14:12:00,
2013-07-12 09:32:00,71.0,-99.9,-100.00,SW,225,8.0,13.0,-999,0.00,,,0.00,,2013-07-12 14:32:00,
2013-07-12 09:44:00,72.0,-99.9,-100.00,WSW,248,5.0,20.0,-999,0.00,,,0.00,,2013-07-12 14:44:00,
2013-07-12 10:02:00,73.0,-99.9,-100.00,WSW,248,9.0,20.0,-999,0.00,,,0.00,,2013-07-12 15:02:00,
2013-07-12 10:11:00,74.0,-99.9,-100.00,WSW,248,3.0,17.0,-999,0.00,,,0.00,,2013-07-12 15:11:00,
2013-07-12 10:33:00,76.0,-99.9,-100.00,SW,225,9.0,15.0,-999,0.00,,,0.00,,2013-07-12 15:33:00,
2013-07-12 10:43:00,76.0,-99.9,-100.00,SSW,203,7.0,18.0,-999,0.00,,,0.00,,2013-07-12 15:43:00,
2013-07-12 11:02:00,77.0,-99.9,-100.00,SSW,203,9.0,16.0,-999,0.00,,,0.00,,2013-07-12 16:02:00,
2013-07-12 11:11:00,78.0,-99.9,-100.00,SW,225,9.0,16.0,-999,0.00,,,0.00,,2013-07-12 16:11:00,
2013-07-12 11:32:00,79.0,-99.9,-100.00,South,180,7.0,20.0,-999,0.00,,,0.00,,2013-07-12 16:32:00,
2013-07-12 11:43:00,79.0,-99.9,-100.00,SSW,203,6.0,15.0,-999,0.00,,,0.00,,2013-07-12 16:43:00,
2013-07-12 12:08:00,81.0,-99.9,-100.00,SW,225,8.0,15.0,-999,0.00,,,0.00,,2013-07-12 17:08:00,
2013-07-12 12:15:00,80.0,-99.9,-100.00,SSW,203,12.0,18.0,-999,0.00,,,0.00,,2013-07-12 17:15:00,
2013-07-12 12:47:00,81.0,-99.9,-100.00,SSW,203,8.0,20.0,-999,0.00,,,0.00,,2013-07-12 17:47:00,
2013-07-12 13:08:00,81.0,-99.9,-100.00,SSW,203,6.0,17.0,-999,0.00,,,0.00,,2013-07-12 18:08:00,
2013-07-12 13:53:00,82.0,-99.9,-100.00,SSW,203,6.0,20.0,-999,0.00,,,0.00,,2013-07-12 18:53:00,
2013-07-12 14:06:00,83.0,-99.9,-100.00,WSW,248,10.0,20.0,-999,0.00,,,0.00,,2013-07-12 19:06:00,
2013-07-12 14:16:00,83.0,-99.9,-100.00,SSW,203,3.0,16.0,-999,0.00,,,0.00,,2013-07-12 19:16:00,
2013-07-12 14:35:00,84.0,-99.9,-100.00,SSW,203,8.0,15.0,-999,0.00,,,0.00,,2013-07-12 19:35:00,
2013-07-12 14:49:00,84.0,-99.9,-100.00,SW,225,12.0,18.0,-999,0.00,,,0.00,,2013-07-12 19:49:00,
2013-07-12 14:59:00,84.0,-99.9,-100.00,SSW,203,8.0,17.0,-999,0.00,,,0.00,,2013-07-12 19:59:00,
2013-07-12 15:05:00,83.0,-99.9,-100.00,SSW,203,6.0,23.0,-999,0.00,,,0.00,,2013-07-12 20:05:00,
2013-07-12 15:15:00,84.0,-99.9,-100.00,South,180,6.0,16.0,-999,0.00,,,0.00,,2013-07-12 20:15:00,
2013-07-12 15:35:00,83.0,-99.9,-100.00,SSW,203,8.0,17.0,-999,0.00,,,0.00,,2013-07-12 20:35:00,
2013-07-12 15:47:00,83.0,-99.9,-100.00,South,180,8.0,16.0,-999,0.00,,,0.00,,2013-07-12 20:47:00,
2013-07-12 16:04:00,83.0,-99.9,-100.00,SSW,203,5.0,14.0,-999,0.00,,,0.00,,2013-07-12 21:04:00,
2013-07-12 16:18:00,82.0,-99.9,-100.00,SSW,203,7.0,17.0,-999,0.00,,,0.00,,2013-07-12 21:18:00,
2013-07-12 16:36:00,81.0,-99.9,-100.00,South,180,6.0,20.0,-999,0.00,,,0.00,,2013-07-12 21:36:00,
2013-07-12 16:50:00,81.0,-99.9,-100.00,SSW,203,7.0,14.0,-999,0.00,,,0.00,,2013-07-12 21:50:00,
2013-07-12 17:04:00,81.0,-99.9,-100.00,South,180,6.0,17.0,-999,0.00,,,0.00,,2013-07-12 22:04:00,
2013-07-12 17:17:00,80.0,-99.9,-100.00,SSW,203,8.0,16.0,-999,0.00,,,0.00,,2013-07-12 22:17:00,
2013-07-12 17:35:00,80.0,-99.9,-100.00,SW,225,7.0,14.0,-999,0.00,,,0.00,,2013-07-12 22:35:00,
2013-07-12 17:47:00,80.0,-99.9,-100.00,SSW,203,9.0,16.0,-999,0.00,,,0.00,,2013-07-12 22:47:00,
2013-07-12 18:06:00,79.0,-99.9,-100.00,SSW,203,8.0,16.0,-999,0.00,,,0.00,,2013-07-12 23:06:00,
2013-07-12 18:14:00,79.0,-99.9,-100.00,SSW,203,8.0,14.0,-999,0.00,,,0.00,,2013-07-12 23:14:00,
2013-07-12 18:38:00,78.0,-99.9,-100.00,SSW,203,7.0,15.0,-999,0.00,,,0.00,,2013-07-12 23:38:00,
2013-07-12 18:46:00,78.0,-99.9,-100.00,South,180,6.0,13.0,-999,0.00,,,0.00,,2013-07-12 23:46:00,
2013-07-12 19:09:00,77.0,-99.9,-100.00,SSW,203,5.0,14.0,-999,0.00,,,0.00,,2013-07-13 00:09:00,
2013-07-12 19:19:00,76.0,-99.9,-100.00,SSW,203,8.0,13.0,-999,0.00,,,0.00,,2013-07-13 00:19:00,
2013-07-12 19:35:00,75.0,-99.9,-100.00,SSW,203,3.0,9.0,-999,0.00,,,0.00,,2013-07-13 00:35:00,
2013-07-12 19:50:00,75.0,-99.9,-100.00,SSW,203,6.0,9.0,-999,0.00,,,0.00,,2013-07-13 00:50:00,
2013-07-12 19:57:00,75.0,-99.9,-100.00,SSW,203,6.0,10.0,-999,0.00,,,0.00,,2013-07-13 00:57:00,
2013-07-12 20:06:00,75.0,-99.9,-100.00,SSW,203,5.0,12.0,-999,0.00,,,0.00,,2013-07-13 01:06:00,
2013-07-12 20:15:00,75.0,-99.9,-100.00,SSW,203,7.0,10.0,-999,0.00,,,0.00,,2013-07-13 01:15:00,
2013-07-12 20:26:00,75.0,-99.9,-100.00,SSW,203,2.0,10.0,-999,0.00,,,0.00,,2013-07-13 01:26:00,
2013-07-12 20:42:00,74.0,-99.9,-100.00,SSW,203,5.0,12.0,-999,0.00,,,0.00,,2013-07-13 01:42:00,
2013-07-12 20:51:00,74.0,-99.9,-100.00,SSW,203,6.0,12.0,-999,0.00,,,0.00,,2013-07-13 01:51:00,
2013-07-12 20:58:00,72.0,-99.9,-100.00,South,180,3.0,6.0,-999,0.00,,,0.00,,2013-07-13 01:58:00,
2013-07-12 21:09:00,71.0,-99.9,-100.00,SSW,203,3.0,8.0,-999,0.00,,,0.00,,2013-07-13 02:09:00,
2013-07-12 21:26:00,70.0,-99.9,-100.00,South,180,2.0,6.0,-999,0.00,,,0.00,,2013-07-13 02:26:00,
2013-07-12 22:06:00,68.0,-99.9,-100.00,SSW,203,1.0,5.0,-999,0.00,,,0.00,,2013-07-13 03:06:00,
2013-07-12 22:14:00,68.0,-99.9,-100.00,South,180,2.0,5.0,-999,0.00,,,0.00,,2013-07-13 03:14:00,
2013-07-12 22:29:00,68.0,-99.9,-100.00,South,180,0.0,5.0,-999,0.00,,,0.00,,2013-07-13 03:29:00,
2013-07-12 22:38:00,67.0,-99.9,-100.00,SSW,203,2.0,5.0,-999,0.00,,,0.00,,2013-07-13 03:38:00,
2013-07-12 22:48:00,67.0,-99.9,-100.00,South,180,1.0,3.0,-999,0.00,,,0.00,,2013-07-13 03:48:00,
2013-07-12 23:02:00,66.0,-99.9,-100.00,South,180,1.0,6.0,-999,0.00,,,0.00,,2013-07-13 04:02:00,
2013-07-12 23:12:00,66.0,-99.9,-100.00,South,180,1.0,3.0,-999,0.00,,,0.00,,2013-07-13 04:12:00,
2013-07-12 23:32:00,66.0,-99.9,-100.00,South,180,1.0,3.0,-999,0.00,,,0.00,,2013-07-13 04:32:00,
2013-07-12 23:44:00,65.0,-99.9,-100.00,South,180,2.0,3.0,-999,0.00,,,0.00,,2013-07-13 04:44:00,